Location: Bannatyne
(13.0833°N, 59.5333°W)
Time: 13:44:12
(UTC+00:00)

Vanguard 2 Rocket - Pass Details

Date: 22 January 2020
Orbit: 554 x 3326 km, 32.9° (Epoch: 29 March)

Event Time Altitude Azimuth Distance (km) Brightness Sun altitude
Rises 08:03:19 0° 262° (W) 2,725 - -33.8°
Reaches altitude 10° 08:05:41 10° 274° (W) 1,821 - -33.2°
Maximum altitude 08:09:08 29° 336° (NNW) 1,103 - -32.4°
Exits shadow 08:12:39 13° 33° (NNE) 1,967 8.8 -31.6°
Drops below altitude 10° 08:13:17 10° 37° (NE) 2,201 9.1 -31.5°
Sets 08:16:26 0° 49° (NE) 3,432 10.3 -30.7°
